Regional Weather Roundup
Issued by NWS

Home | Current Version | Previous Version | Text Only | Print | Product List | Glossary On
Versions: 1 2 3 4 5 6 7 8 9 10 11 12 13 14 15 16 17 18 19 20 21 22 23 24 25 26 27 28 29 30 31 32 33 34 35 36 37 38 39 40 41 42 43 44 45 46 47 48 49 50
000
ASUS44 KFWD 291001
RWRTX
NORTH TEXAS HOURLY WEATHER ROUNDUP
NATIONAL WEATHER SERVICE FORT WORTH TX
500 AM CDT FRI APR 29 2016

NOTE: "FAIR" INDICATES FEW OR NO CLOUDS BELOW 12,000 FEET WITH NO
SIGNIFICANT WEATHER AND/OR OBSTRUCTIONS TO VISIBILITY.

TXZ118-119-291100-
DALLAS/FORT WORTH METROPLEX

CITY           SKY/WX    TMP DP  RH WIND       PRES   REMARKS
DFW AIRPORT    MOCLDY    74  68  81 S10       29.69F
DALLAS LOVE    MOCLDY    74  70  87 S12       29.70F
FTW MEACHAM    MOCLDY    73  68  84 SE7       29.69S
DAL-EXECUTIVE  CLOUDY    73  68  84 SE6       29.70F
FTW-ALLIANCE   CLOUDY    71  67  87 S7        29.69F
FTW-NAS-JRB    CLOUDY    75  69  81 SE5       29.70S
ARLINGTON      LGT RAIN  76  70  82 SE8       29.70F
GRAND PRAIRIE  PTCLDY    73  69  86 S8        29.72S
MESQUITE       CLOUDY    69  68  97 CALM      29.71F
LANCASTER      CLOUDY    70  66  85 SE5       29.72F
$$

TXZ091>094-102>105-117-120-121-131>134-291100-
NORTH CENTRAL TEXAS

CITY           SKY/WX    TMP DP  RH WIND       PRES   REMARKS
BRIDGEPORT     CLOUDY    67  67 100 E3        29.72S
DECATUR        MOCLDY    67  66  94 SE5       29.71F
DENTON         CLOUDY    69  66  90 SE3       29.70F
MCKINNEY       PTCLDY    68  67  96 S3        29.70F
ROCKWALL       CLOUDY    70  69  98 S13       29.69F
TERRELL        CLOUDY    73  70  90 S5        29.72F
WAXAHACHIE     CLOUDY    73  73  99 SE9       29.71F FOG
GRANBURY       CLOUDY    76  70  80 SE6       29.71R
$$

TXZ083>090-098>101-113>116-127>130-139>142-154-155-291100-
WESTERN NORTH TEXAS

CITY           SKY/WX    TMP DP  RH WIND       PRES   REMARKS
WICHITA FALLS  CLOUDY    64  59  83 NE8       29.70F
WF-KICKAPOO    CLOUDY    66  61  82 E5        29.71F
ABILENE        MOCLDY    70  67  90 SE14      29.67F FOG
ABILENE-DYESS  MOCLDY    70  68  94 SE18      29.65F
MINERAL WELLS  CLOUDY    72  68  87 SE8       29.68F
STEPHENVILLE   CLOUDY    72  68  86 S7        29.73S
COMANCHE       CLOUDY    71  71 100 S6        29.71R
COLEMAN        CLOUDY    71  67  87 SE9       29.70F
$$

TXZ143>147-156>162-174-175-291100-
CENTRAL TEXAS

CITY           SKY/WX    TMP DP  RH WIND       PRES   REMARKS
WACO           MOCLDY    74  70  87 S12       29.70F
WACO-MCGREGOR  CLEAR     73  72  96 S9        29.71F
HILLSBORO      CLOUDY    73  70  91 SE14      29.71F
CORSICANA      CLOUDY    75  70  84 S6        29.73F
MEXIA          CLOUDY    73  72  96 SE6       29.72F
HEARNE         CLOUDY    75  73  95 SE6       29.72F
CAMERON        CLOUDY    76  73  90 S6        29.71F
TEMPLE         PTCLDY    73  71  93 S12       29.71F
KILLEEN        CLOUDY    73  71  95 SE15      29.69F
KILLEEN-SKYLRK CLOUDY    73  71  93 S10       29.71F
FORT HOOD      CLOUDY    71  71 100 S9        29.69F
HAMILTON       CLOUDY    72  72 100 S9G18     29.72S FOG
$$

TXZ095>097-106>112-122>126-135>138-148>153-164>167-291100-
EAST TEXAS

CITY           SKY/WX    TMP DP  RH WIND       PRES   REMARKS
PARIS          CLOUDY    68  57  68 E12       29.74R
SULPHUR SPRNGS CLOUDY    71  67  85 S6        29.73F
GILMER         CLOUDY    73  69  89 SE6       29.73F
MINEOLA        CLOUDY    72  68  88 CALM      29.72F
TYLER          CLOUDY    76  70  82 S10       29.73F
LONGVIEW       CLOUDY    74  71  91 SE9       29.72F
PALESTINE      CLOUDY    76  73  88 SE7       29.74F
JACKSONVILLE   CLOUDY    75  72  89 S9G16     29.76F
NACOGDOCHES    CLOUDY    75  70  83 S14G24    29.75F
LUFKIN         MOCLDY    75  70  84 S13       29.76F
$$

SUPPLEMENTAL OBSERVATIONS (CENTRAL)

CITY           SKY/WX    TMP DP  RH WIND       PRES   REMARKS
$$

SUPPLEMENTAL OBSERVATIONS (WEST)

CITY           SKY/WX    TMP DP  RH WIND       PRES   REMARKS
$$

SUPPLEMENTAL OBSERVATIONS (EAST)

CITY           SKY/WX    TMP DP  RH WIND       PRES   REMARKS
$$

SUPPLEMENTAL OBSERVATIONS ARE A COLLECTION OF AUTOMATED INSTRUMENTS
THAT ARE MAINTAINED BY A VARIETY OF FEDERAL AND STATE AGENCIES.
CERTAIN ELEMENTS...SUCH AS HUMIDITY VALUES AND SUSTAINED WIND
SPEEDS...MAY BE APPROXIMATED.





USA.gov is the U.S. government's official web portal to all federal, state and local government web resources and services.